Year,Month,Day,Hour,Minute,Value (Times are PST for temperature in C)
2009,08,24,00,00,11.60
2009,08,24,00,01,11.60
2009,08,24,00,02,11.60
2009,08,24,00,03,11.60
2009,08,24,00,04,11.60
2009,08,24,00,05,11.60
2009,08,24,00,06,11.60
2009,08,24,00,07,11.60
2009,08,24,00,08,11.50
2009,08,24,00,09,11.50
2009,08,24,00,10,11.50
2009,08,24,00,11,11.50
2009,08,24,00,12,11.50
2009,08,24,00,13,11.50
2009,08,24,00,14,11.40
2009,08,24,00,15,11.40
2009,08,24,00,16,11.40
2009,08,24,00,17,11.40
2009,08,24,00,18,11.40
2009,08,24,00,19,11.40
2009,08,24,00,20,11.40
2009,08,24,00,21,11.30
2009,08,24,00,22,11.30
2009,08,24,00,23,11.30
2009,08,24,00,24,11.30
2009,08,24,00,25,11.30
2009,08,24,00,26,11.30
2009,08,24,00,27,11.30
2009,08,24,00,28,11.30
2009,08,24,00,29,11.30
2009,08,24,00,30,11.30
2009,08,24,00,31,11.30
2009,08,24,00,32,11.30
2009,08,24,00,33,11.30
2009,08,24,00,34,11.30
2009,08,24,00,35,11.30
2009,08,24,00,36,11.30
2009,08,24,00,37,11.30
2009,08,24,00,38,11.30
2009,08,24,00,39,11.30
2009,08,24,00,40,11.30
2009,08,24,00,41,11.30
2009,08,24,00,42,11.30
2009,08,24,00,43,11.30
2009,08,24,00,44,11.30
2009,08,24,00,45,11.30
2009,08,24,00,46,11.20
2009,08,24,00,47,11.20
2009,08,24,00,48,11.20
2009,08,24,00,49,11.20
2009,08,24,00,50,11.20
2009,08,24,00,51,11.20
2009,08,24,00,52,11.20
2009,08,24,00,53,11.20
2009,08,24,00,54,11.20
2009,08,24,00,55,11.20
2009,08,24,00,56,11.10
2009,08,24,00,57,11.10
2009,08,24,00,58,11.10
2009,08,24,00,59,11.10
2009,08,24,01,00,11.10
2009,08,24,01,01,11.10
2009,08,24,01,02,11.10
2009,08,24,01,03,11.10
2009,08,24,01,04,11.10
2009,08,24,01,05,11.10
2009,08,24,01,06,11.10
2009,08,24,01,07,11.10
2009,08,24,01,08,11.00
2009,08,24,01,09,11.00
2009,08,24,01,10,11.00
2009,08,24,01,11,11.00
2009,08,24,01,12,11.00
2009,08,24,01,13,11.00
2009,08,24,01,14,11.00
2009,08,24,01,15,11.10
2009,08,24,01,16,11.10
2009,08,24,01,17,11.10
2009,08,24,01,18,11.10
2009,08,24,01,19,11.10
2009,08,24,01,20,11.10
2009,08,24,01,21,11.10
2009,08,24,01,22,11.00
2009,08,24,01,23,11.00
2009,08,24,01,24,11.00
2009,08,24,01,25,11.00
2009,08,24,01,26,11.00
2009,08,24,01,27,11.00
2009,08,24,01,28,11.00
2009,08,24,01,29,11.00
2009,08,24,01,30,11.00
2009,08,24,01,31,11.00
2009,08,24,01,32,11.00
2009,08,24,01,33,10.90
2009,08,24,01,34,10.90
2009,08,24,01,35,10.90
2009,08,24,01,36,10.90
2009,08,24,01,37,10.90
2009,08,24,01,38,10.90
2009,08,24,01,39,10.90
2009,08,24,01,40,10.90
2009,08,24,01,41,10.90
2009,08,24,01,42,10.90
2009,08,24,01,43,10.80
2009,08,24,01,44,10.80
2009,08,24,01,45,10.80
2009,08,24,01,46,10.80
2009,08,24,01,47,10.80
2009,08,24,01,48,10.80
2009,08,24,01,49,10.80
2009,08,24,01,50,10.80
2009,08,24,01,51,10.80
2009,08,24,01,52,10.80
2009,08,24,01,53,10.70
2009,08,24,01,54,10.70
2009,08,24,01,55,10.70
2009,08,24,01,56,10.70
2009,08,24,01,57,10.70
2009,08,24,01,58,10.70
2009,08,24,01,59,10.70
2009,08,24,02,00,10.70
2009,08,24,02,01,10.60
2009,08,24,02,02,10.60
2009,08,24,02,03,10.60
2009,08,24,02,04,10.60
2009,08,24,02,05,10.60
2009,08,24,02,06,10.60
2009,08,24,02,07,10.60
2009,08,24,02,08,10.50
2009,08,24,02,09,10.50
2009,08,24,02,10,10.50
2009,08,24,02,11,10.50
2009,08,24,02,12,10.40
2009,08,24,02,13,10.40
2009,08,24,02,14,10.40
2009,08,24,02,15,10.40
2009,08,24,02,16,10.40
2009,08,24,02,17,10.40
2009,08,24,02,18,10.40
2009,08,24,02,19,10.40
2009,08,24,02,20,10.40
2009,08,24,02,21,10.30
2009,08,24,02,22,10.30
2009,08,24,02,23,10.30
2009,08,24,02,24,10.30
2009,08,24,02,25,10.30
2009,08,24,02,26,10.30
2009,08,24,02,27,10.30
2009,08,24,02,28,10.30
2009,08,24,02,29,10.30
2009,08,24,02,30,10.30
2009,08,24,02,31,10.30
2009,08,24,02,32,10.30
2009,08,24,02,33,10.30
2009,08,24,02,34,10.30
2009,08,24,02,35,10.30
2009,08,24,02,36,10.30
2009,08,24,02,37,10.30
2009,08,24,02,38,10.30
2009,08,24,02,39,10.30
2009,08,24,02,40,10.30
2009,08,24,02,41,10.30
2009,08,24,02,42,10.30
2009,08,24,02,43,10.30
2009,08,24,02,44,10.30
2009,08,24,02,45,10.30
2009,08,24,02,46,10.20
2009,08,24,02,47,10.20
2009,08,24,02,48,10.20
2009,08,24,02,49,10.20
2009,08,24,02,50,10.20
2009,08,24,02,51,10.20
2009,08,24,02,52,10.30
2009,08,24,02,53,10.30
2009,08,24,02,54,10.30
2009,08,24,02,55,10.30
2009,08,24,02,56,10.30
2009,08,24,02,57,10.30
2009,08,24,02,58,10.30
2009,08,24,02,59,10.30
2009,08,24,03,00,10.30
2009,08,24,03,01,10.30
2009,08,24,03,02,10.30
2009,08,24,03,03,10.30
2009,08,24,03,04,10.30
2009,08,24,03,05,10.30
2009,08,24,03,06,10.30
2009,08,24,03,07,10.30
2009,08,24,03,08,10.30
2009,08,24,03,09,10.30
2009,08,24,03,10,10.30
2009,08,24,03,11,10.30
2009,08,24,03,12,10.30
2009,08,24,03,13,10.30
2009,08,24,03,14,10.30
2009,08,24,03,15,10.30
2009,08,24,03,16,10.30
2009,08,24,03,17,10.30
2009,08,24,03,18,10.30
2009,08,24,03,19,10.30
2009,08,24,03,20,10.30
2009,08,24,03,21,10.30
2009,08,24,03,22,10.30
2009,08,24,03,23,10.30
2009,08,24,03,24,10.30
2009,08,24,03,25,10.30
2009,08,24,03,26,10.30
2009,08,24,03,27,10.20
2009,08,24,03,28,10.20
2009,08,24,03,29,10.20
2009,08,24,03,30,10.20
2009,08,24,03,31,10.20
2009,08,24,03,32,10.20
2009,08,24,03,33,10.20
2009,08,24,03,34,10.20
2009,08,24,03,35,10.10
2009,08,24,03,36,10.10
2009,08,24,03,37,10.10
2009,08,24,03,38,10.10
2009,08,24,03,39,10.10
2009,08,24,03,40,10.10
2009,08,24,03,41,10.10
2009,08,24,03,42,10.10
2009,08,24,03,43,10.10
2009,08,24,03,44,10.10
2009,08,24,03,45,10.00
2009,08,24,03,46,10.00
2009,08,24,03,47,10.00
2009,08,24,03,48,10.00
2009,08,24,03,49,10.00
2009,08,24,03,50,9.90
2009,08,24,03,51,9.90
2009,08,24,03,52,9.90
2009,08,24,03,53,9.90
2009,08,24,03,54,9.90
2009,08,24,03,55,9.90
2009,08,24,03,56,9.90
2009,08,24,03,57,9.90
2009,08,24,03,58,9.90
2009,08,24,03,59,9.90
2009,08,24,04,00,9.90
2009,08,24,04,01,9.90
2009,08,24,04,02,9.90
2009,08,24,04,03,9.90
2009,08,24,04,04,9.90
2009,08,24,04,05,9.90
2009,08,24,04,06,9.90
2009,08,24,04,07,9.90
2009,08,24,04,08,9.90
2009,08,24,04,09,9.90
2009,08,24,04,10,9.90
2009,08,24,04,11,9.90
2009,08,24,04,12,9.90
2009,08,24,04,13,9.90
2009,08,24,04,14,9.90
2009,08,24,04,15,9.90
2009,08,24,04,16,9.90
2009,08,24,04,17,9.90
2009,08,24,04,18,9.90
2009,08,24,04,19,10.00
2009,08,24,04,20,10.00
2009,08,24,04,21,10.00
2009,08,24,04,22,10.00
2009,08,24,04,23,10.00
2009,08,24,04,24,10.00
2009,08,24,04,25,10.00
2009,08,24,04,26,10.10
2009,08,24,04,27,10.10
2009,08,24,04,28,10.10
2009,08,24,04,29,10.10
2009,08,24,04,30,10.10
2009,08,24,04,31,10.10
2009,08,24,04,32,10.20
2009,08,24,04,33,10.20
2009,08,24,04,34,10.20
2009,08,24,04,35,10.20
2009,08,24,04,36,10.20
2009,08,24,04,37,10.20
2009,08,24,04,38,10.20
2009,08,24,04,39,10.20
2009,08,24,04,40,10.20
2009,08,24,04,41,10.20
2009,08,24,04,42,10.20
2009,08,24,04,43,10.20
2009,08,24,04,44,10.20
2009,08,24,04,45,10.20
2009,08,24,04,46,10.20
2009,08,24,04,47,10.20
2009,08,24,04,48,10.20
2009,08,24,04,49,10.20
2009,08,24,04,50,10.20
2009,08,24,04,51,10.20
2009,08,24,04,52,10.20
2009,08,24,04,53,10.20
2009,08,24,04,54,10.30
2009,08,24,04,55,10.30
2009,08,24,04,56,10.30
2009,08,24,04,57,10.30
2009,08,24,04,58,10.30
2009,08,24,04,59,10.30
2009,08,24,05,00,10.30
2009,08,24,05,01,10.30
2009,08,24,05,02,10.30
2009,08,24,05,03,10.30
2009,08,24,05,04,10.30
2009,08,24,05,05,10.30
2009,08,24,05,06,10.30
2009,08,24,05,07,10.30
2009,08,24,05,08,10.30
2009,08,24,05,09,10.30
2009,08,24,05,10,10.30
2009,08,24,05,11,10.30
2009,08,24,05,12,10.30
2009,08,24,05,13,10.30
2009,08,24,05,14,10.30
2009,08,24,05,15,10.20
2009,08,24,05,16,10.20
2009,08,24,05,17,10.20
2009,08,24,05,18,10.20
2009,08,24,05,19,10.10
2009,08,24,05,20,10.10
2009,08,24,05,21,10.10
2009,08,24,05,22,10.10
2009,08,24,05,23,10.10
2009,08,24,05,24,10.10
2009,08,24,05,25,10.00
2009,08,24,05,26,10.00
2009,08,24,05,27,10.00
2009,08,24,05,28,9.90
2009,08,24,05,29,9.90
2009,08,24,05,30,9.90
2009,08,24,05,31,9.90
2009,08,24,05,32,9.90
2009,08,24,05,33,9.80
2009,08,24,05,34,9.80
2009,08,24,05,35,9.80
2009,08,24,05,36,9.80
2009,08,24,05,37,9.80
2009,08,24,05,38,9.80
2009,08,24,05,39,9.80
2009,08,24,05,40,9.80
2009,08,24,05,41,9.80
2009,08,24,05,42,9.80
2009,08,24,05,43,9.80
2009,08,24,05,44,9.80
2009,08,24,05,45,9.80
2009,08,24,05,46,9.80
2009,08,24,05,47,9.80
2009,08,24,05,48,9.80
2009,08,24,05,49,9.80
2009,08,24,05,50,9.80
2009,08,24,05,51,9.80
2009,08,24,05,52,9.80
2009,08,24,05,53,9.80
2009,08,24,05,54,9.80
2009,08,24,05,55,9.80
2009,08,24,05,56,9.80
2009,08,24,05,57,9.80
2009,08,24,05,58,9.80
2009,08,24,05,59,9.80
2009,08,24,06,00,9.80
2009,08,24,06,01,9.80
2009,08,24,06,02,9.80
2009,08,24,06,03,9.80
2009,08,24,06,04,9.80
2009,08,24,06,05,9.80
2009,08,24,06,06,9.80
2009,08,24,06,07,9.80
2009,08,24,06,08,9.80
2009,08,24,06,09,9.80
2009,08,24,06,10,9.80
2009,08,24,06,11,9.80
2009,08,24,06,12,9.80
2009,08,24,06,13,9.80
2009,08,24,06,14,9.80
2009,08,24,06,15,9.80
2009,08,24,06,16,9.80
2009,08,24,06,17,9.70
2009,08,24,06,18,9.70
2009,08,24,06,19,9.70
2009,08,24,06,20,9.70
2009,08,24,06,21,9.70
2009,08,24,06,22,9.70
2009,08,24,06,23,9.70
2009,08,24,06,24,9.60
2009,08,24,06,25,9.60
2009,08,24,06,26,9.60
2009,08,24,06,27,9.60
2009,08,24,06,28,9.60
2009,08,24,06,29,9.60
2009,08,24,06,30,9.60
2009,08,24,06,31,9.50
2009,08,24,06,32,9.50
2009,08,24,06,33,9.50
2009,08,24,06,34,9.50
2009,08,24,06,35,9.50
2009,08,24,06,36,9.50
2009,08,24,06,37,9.50
2009,08,24,06,38,9.40
2009,08,24,06,39,9.40
2009,08,24,06,40,9.40
2009,08,24,06,41,9.40
2009,08,24,06,42,9.40
2009,08,24,06,43,9.40
2009,08,24,06,44,9.50
2009,08,24,06,45,9.50
2009,08,24,06,46,9.50
2009,08,24,06,47,9.50
2009,08,24,06,48,9.50
2009,08,24,06,49,9.50
2009,08,24,06,50,9.50
2009,08,24,06,51,9.50
2009,08,24,06,52,9.50
2009,08,24,06,53,9.50
2009,08,24,06,54,9.60
2009,08,24,06,55,9.60
2009,08,24,06,56,9.60
2009,08,24,06,57,9.60
2009,08,24,06,58,9.60
2009,08,24,06,59,9.60
2009,08,24,07,00,9.60
2009,08,24,07,01,9.60
2009,08,24,07,02,9.60
2009,08,24,07,03,9.60
2009,08,24,07,04,9.60
2009,08,24,07,05,9.70
2009,08,24,07,06,9.70
2009,08,24,07,07,9.80
2009,08,24,07,08,9.80
2009,08,24,07,09,9.90
2009,08,24,07,10,10.00
2009,08,24,07,11,10.10
2009,08,24,07,12,10.20
2009,08,24,07,13,10.30
2009,08,24,07,14,10.30
2009,08,24,07,15,10.30
2009,08,24,07,16,10.40
2009,08,24,07,17,10.40
2009,08,24,07,18,10.40
2009,08,24,07,19,10.40
2009,08,24,07,20,10.50
2009,08,24,07,21,10.50
2009,08,24,07,22,10.50
2009,08,24,07,23,10.60
2009,08,24,07,24,10.60
2009,08,24,07,25,10.60
2009,08,24,07,26,10.60
2009,08,24,07,27,10.70
2009,08,24,07,28,10.70
2009,08,24,07,29,10.70
2009,08,24,07,30,10.80
2009,08,24,07,31,10.90
2009,08,24,07,32,11.00
2009,08,24,07,33,11.10
2009,08,24,07,34,11.20
2009,08,24,07,35,11.20
2009,08,24,07,36,11.30
2009,08,24,07,37,11.30
2009,08,24,07,38,11.40
2009,08,24,07,39,11.50
2009,08,24,07,40,11.60
2009,08,24,07,41,11.70
2009,08,24,07,42,11.80
2009,08,24,07,43,11.80
2009,08,24,07,44,11.90
2009,08,24,07,45,12.00
2009,08,24,07,46,12.00
2009,08,24,07,47,12.10
2009,08,24,07,48,12.20
2009,08,24,07,49,12.30
2009,08,24,07,50,12.30
2009,08,24,07,51,12.40
2009,08,24,07,52,12.50
2009,08,24,07,53,12.60
2009,08,24,07,54,12.70
2009,08,24,07,55,12.80
2009,08,24,07,56,12.90
2009,08,24,07,57,12.90
2009,08,24,07,58,13.00
2009,08,24,07,59,13.10
2009,08,24,08,00,13.20
2009,08,24,08,01,13.30
2009,08,24,08,02,13.30
2009,08,24,08,03,13.30
2009,08,24,08,04,13.40
2009,08,24,08,05,13.40
2009,08,24,08,06,13.50
2009,08,24,08,07,13.50
2009,08,24,08,08,13.60
2009,08,24,08,09,13.70
2009,08,24,08,10,13.70
2009,08,24,08,11,13.70
2009,08,24,08,12,13.70
2009,08,24,08,13,13.70
2009,08,24,08,14,13.70
2009,08,24,08,15,13.60
2009,08,24,08,16,13.50
2009,08,24,08,17,13.50
2009,08,24,08,18,13.40
2009,08,24,08,19,13.40
2009,08,24,08,20,13.50
2009,08,24,08,21,13.40
2009,08,24,08,22,13.40
2009,08,24,08,23,13.30
2009,08,24,08,24,13.40
2009,08,24,08,25,13.50
2009,08,24,08,26,13.50
2009,08,24,08,27,13.60
2009,08,24,08,28,13.60
2009,08,24,08,29,13.60
2009,08,24,08,30,13.60
2009,08,24,08,31,13.60
2009,08,24,08,32,13.70
2009,08,24,08,33,13.70
2009,08,24,08,34,13.70
2009,08,24,08,35,13.60
2009,08,24,08,36,13.60
2009,08,24,08,37,13.50
2009,08,24,08,38,13.50
2009,08,24,08,39,13.50
2009,08,24,08,40,13.60
2009,08,24,08,41,13.60
2009,08,24,08,42,13.60
2009,08,24,08,43,13.60
2009,08,24,08,44,13.70
2009,08,24,08,45,13.80
2009,08,24,08,46,13.80
2009,08,24,08,47,13.80
2009,08,24,08,48,13.90
2009,08,24,08,49,14.00
2009,08,24,08,50,14.10
2009,08,24,08,51,14.20
2009,08,24,08,52,14.30
2009,08,24,08,53,14.40
2009,08,24,08,54,14.40
2009,08,24,08,55,14.50
2009,08,24,08,56,14.50
2009,08,24,08,57,14.60
2009,08,24,08,58,14.50
2009,08,24,08,59,14.40
2009,08,24,09,00,14.50
2009,08,24,09,01,14.50
2009,08,24,09,02,14.60
2009,08,24,09,03,14.70
2009,08,24,09,04,14.70
2009,08,24,09,05,14.70
2009,08,24,09,06,14.80
2009,08,24,09,07,14.80
2009,08,24,09,08,14.90
2009,08,24,09,09,15.00
2009,08,24,09,10,15.00
2009,08,24,09,11,15.00
2009,08,24,09,12,14.90
2009,08,24,09,13,14.90
2009,08,24,09,14,14.80
2009,08,24,09,15,14.80
2009,08,24,09,16,14.80
2009,08,24,09,17,14.80
2009,08,24,09,18,14.90
2009,08,24,09,19,15.00
2009,08,24,09,20,15.00
2009,08,24,09,21,15.00
2009,08,24,09,22,15.00
2009,08,24,09,23,15.10
2009,08,24,09,24,15.20
2009,08,24,09,25,15.30
2009,08,24,09,26,15.40
2009,08,24,09,27,15.40
2009,08,24,09,28,15.50
2009,08,24,09,29,15.50
2009,08,24,09,30,15.40
2009,08,24,09,31,15.20
2009,08,24,09,32,15.00
2009,08,24,09,33,15.00
2009,08,24,09,34,15.00
2009,08,24,09,35,15.00
2009,08,24,09,36,15.00
2009,08,24,09,37,14.90
2009,08,24,09,38,15.00
2009,08,24,09,39,15.00
2009,08,24,09,40,15.00
2009,08,24,09,41,15.00
2009,08,24,09,42,15.00
2009,08,24,09,43,15.00
2009,08,24,09,44,15.00
2009,08,24,09,45,15.00
2009,08,24,09,46,15.00
2009,08,24,09,47,15.00
2009,08,24,09,48,15.00
2009,08,24,09,49,15.00
2009,08,24,09,50,15.00
2009,08,24,09,51,15.00
2009,08,24,09,52,14.80
2009,08,24,09,53,14.80
2009,08,24,09,54,14.80
2009,08,24,09,55,14.70
2009,08,24,09,56,14.80
2009,08,24,09,57,15.00
2009,08,24,09,58,15.00
2009,08,24,09,59,15.10
2009,08,24,10,00,15.30
2009,08,24,10,01,15.40
2009,08,24,10,02,15.50
2009,08,24,10,03,15.60
2009,08,24,10,04,15.60
2009,08,24,10,05,15.60
2009,08,24,10,06,15.50
2009,08,24,10,07,15.50
2009,08,24,10,08,15.40
2009,08,24,10,09,15.40
2009,08,24,10,10,15.40
2009,08,24,10,11,15.40
2009,08,24,10,12,15.40
2009,08,24,10,13,15.50
2009,08,24,10,14,15.60
2009,08,24,10,15,15.60
2009,08,24,10,16,15.60
2009,08,24,10,17,15.60
2009,08,24,10,18,15.60
2009,08,24,10,19,15.50
2009,08,24,10,20,15.40
2009,08,24,10,21,15.30
2009,08,24,10,22,15.20
2009,08,24,10,23,15.00
2009,08,24,10,24,15.00
2009,08,24,10,25,15.00
2009,08,24,10,26,15.00
2009,08,24,10,27,15.00
2009,08,24,10,28,15.00
2009,08,24,10,29,15.00
2009,08,24,10,30,15.20
2009,08,24,10,31,15.30
2009,08,24,10,32,15.30
2009,08,24,10,33,15.40
2009,08,24,10,34,15.50
2009,08,24,10,35,15.40
2009,08,24,10,36,15.30
2009,08,24,10,37,15.20
2009,08,24,10,38,15.10
2009,08,24,10,39,15.00
2009,08,24,10,40,15.00
2009,08,24,10,41,15.00
2009,08,24,10,42,15.00
2009,08,24,10,43,15.00
2009,08,24,10,44,15.10
2009,08,24,10,45,15.30
2009,08,24,10,46,15.40
2009,08,24,10,47,15.50
2009,08,24,10,48,15.60
2009,08,24,10,49,15.60
2009,08,24,10,50,15.60
2009,08,24,10,51,15.70
2009,08,24,10,52,15.80
2009,08,24,10,53,15.90
2009,08,24,10,54,16.00
2009,08,24,10,55,16.00
2009,08,24,10,56,16.10
2009,08,24,10,57,16.20
2009,08,24,10,58,16.30
2009,08,24,10,59,16.30
2009,08,24,11,00,16.30
2009,08,24,11,01,16.40
2009,08,24,11,02,16.40
2009,08,24,11,03,16.40
2009,08,24,11,04,16.30
2009,08,24,11,05,16.20
2009,08,24,11,06,16.20
2009,08,24,11,07,16.00
2009,08,24,11,08,16.00
2009,08,24,11,09,15.90
2009,08,24,11,10,15.90
2009,08,24,11,11,15.90
2009,08,24,11,12,16.00
2009,08,24,11,13,16.00
2009,08,24,11,14,15.90
2009,08,24,11,15,15.90
2009,08,24,11,16,15.80
2009,08,24,11,17,15.80
2009,08,24,11,18,15.80
2009,08,24,11,19,15.80
2009,08,24,11,20,15.90
2009,08,24,11,21,15.90
2009,08,24,11,22,15.90
2009,08,24,11,23,15.90
2009,08,24,11,24,16.00
2009,08,24,11,25,16.10
2009,08,24,11,26,16.20
2009,08,24,11,27,16.30
2009,08,24,11,28,16.40
2009,08,24,11,29,16.50
2009,08,24,11,30,16.60
2009,08,24,11,31,16.70
2009,08,24,11,32,16.80
2009,08,24,11,33,16.90
2009,08,24,11,34,17.00
2009,08,24,11,35,17.10
2009,08,24,11,36,17.10
2009,08,24,11,37,17.20
2009,08,24,11,38,17.20
2009,08,24,11,39,17.20
2009,08,24,11,40,17.20
2009,08,24,11,41,17.20
2009,08,24,11,42,17.20
2009,08,24,11,43,17.10
2009,08,24,11,44,17.10
2009,08,24,11,45,17.10
2009,08,24,11,46,17.10
2009,08,24,11,47,17.10
2009,08,24,11,48,17.10
2009,08,24,11,49,17.20
2009,08,24,11,50,17.20
2009,08,24,11,51,17.30
2009,08,24,11,52,17.30
2009,08,24,11,53,17.30
2009,08,24,11,54,17.30
2009,08,24,11,55,17.10
2009,08,24,11,56,17.00
2009,08,24,11,57,16.90
2009,08,24,11,58,16.80
2009,08,24,11,59,16.70
2009,08,24,12,00,16.70
2009,08,24,12,01,16.60
2009,08,24,12,02,16.70
2009,08,24,12,03,16.70
2009,08,24,12,04,16.80
2009,08,24,12,05,16.90
2009,08,24,12,06,16.90
2009,08,24,12,07,17.00
2009,08,24,12,08,17.00
2009,08,24,12,09,17.00
2009,08,24,12,10,17.00
2009,08,24,12,11,16.90
2009,08,24,12,12,16.90
2009,08,24,12,13,16.90
2009,08,24,12,14,16.70
2009,08,24,12,15,16.60
2009,08,24,12,16,16.50
2009,08,24,12,17,16.50
2009,08,24,12,18,16.60
2009,08,24,12,19,16.70
2009,08,24,12,20,16.90
2009,08,24,12,21,17.00
2009,08,24,12,22,17.10
2009,08,24,12,23,17.10
2009,08,24,12,24,17.20
2009,08,24,12,25,17.30
2009,08,24,12,26,17.30
2009,08,24,12,27,17.30
2009,08,24,12,28,17.20
2009,08,24,12,29,17.30
2009,08,24,12,30,17.40
2009,08,24,12,31,17.50
2009,08,24,12,32,17.60
2009,08,24,12,33,17.70
2009,08,24,12,34,17.80
2009,08,24,12,35,17.90
2009,08,24,12,36,17.80
2009,08,24,12,37,17.70
2009,08,24,12,38,17.70
2009,08,24,12,39,17.70
2009,08,24,12,40,17.80
2009,08,24,12,41,17.80
2009,08,24,12,42,17.80
2009,08,24,12,43,17.90
2009,08,24,12,44,18.00
2009,08,24,12,45,18.00
2009,08,24,12,46,18.00
2009,08,24,12,47,17.80
2009,08,24,12,48,17.80
2009,08,24,12,49,17.70
2009,08,24,12,50,17.60
2009,08,24,12,51,17.60
2009,08,24,12,52,17.70
2009,08,24,12,53,17.70
2009,08,24,12,54,17.70
2009,08,24,12,55,17.80
2009,08,24,12,56,17.90
2009,08,24,12,57,17.90
2009,08,24,12,58,18.00
2009,08,24,12,59,18.10
2009,08,24,13,00,18.00
2009,08,24,13,01,18.00
2009,08,24,13,02,18.00
2009,08,24,13,03,18.10
2009,08,24,13,04,18.20
2009,08,24,13,05,18.20
2009,08,24,13,06,18.20
2009,08,24,13,07,18.10
2009,08,24,13,08,18.10
2009,08,24,13,09,18.10
2009,08,24,13,10,18.10
2009,08,24,13,11,18.20
2009,08,24,13,12,18.10
2009,08,24,13,13,18.20
2009,08,24,13,14,18.20
2009,08,24,13,15,18.20
2009,08,24,13,16,18.20
2009,08,24,13,17,18.30
2009,08,24,13,18,18.20
2009,08,24,13,19,18.20
2009,08,24,13,20,18.20
2009,08,24,13,21,18.10
2009,08,24,13,22,18.00
2009,08,24,13,23,17.90
2009,08,24,13,24,17.90
2009,08,24,13,25,17.90
2009,08,24,13,26,17.90
2009,08,24,13,27,17.90
2009,08,24,13,28,17.90
2009,08,24,13,29,18.00
2009,08,24,13,30,18.10
2009,08,24,13,31,18.20
2009,08,24,13,32,18.20
2009,08,24,13,33,18.30
2009,08,24,13,34,18.50
2009,08,24,13,35,18.60
2009,08,24,13,36,18.70
2009,08,24,13,37,18.80
2009,08,24,13,38,18.80
2009,08,24,13,39,18.80
2009,08,24,13,40,18.90
2009,08,24,13,41,18.90
2009,08,24,13,42,18.90
2009,08,24,13,43,18.80
2009,08,24,13,44,18.80
2009,08,24,13,45,18.80
2009,08,24,13,46,18.80
2009,08,24,13,47,18.70
2009,08,24,13,48,18.70
2009,08,24,13,49,18.70
2009,08,24,13,50,18.60
2009,08,24,13,51,18.50
2009,08,24,13,52,18.30
2009,08,24,13,53,18.20
2009,08,24,13,54,18.10
2009,08,24,13,55,18.10
2009,08,24,13,56,18.10
2009,08,24,13,57,18.20
2009,08,24,13,58,18.20
2009,08,24,13,59,18.20
2009,08,24,14,00,18.20
2009,08,24,14,01,18.20
2009,08,24,14,02,18.20
2009,08,24,14,03,18.20
2009,08,24,14,04,18.30
2009,08,24,14,05,18.40
2009,08,24,14,06,18.40
2009,08,24,14,07,18.50
2009,08,24,14,08,18.60
2009,08,24,14,09,18.60
2009,08,24,14,10,18.60
2009,08,24,14,11,18.60
2009,08,24,14,12,18.70
2009,08,24,14,13,18.70
2009,08,24,14,14,18.60
2009,08,24,14,15,18.50
2009,08,24,14,16,18.40
2009,08,24,14,17,18.30
2009,08,24,14,18,18.20
2009,08,24,14,19,18.20
2009,08,24,14,20,18.20
2009,08,24,14,21,18.10
2009,08,24,14,22,18.10
2009,08,24,14,23,18.10
2009,08,24,14,24,18.10
2009,08,24,14,25,18.20
2009,08,24,14,26,18.20
2009,08,24,14,27,18.30
2009,08,24,14,28,18.40
2009,08,24,14,29,18.50
2009,08,24,14,30,18.60
2009,08,24,14,31,18.70
2009,08,24,14,32,18.70
2009,08,24,14,33,18.80
2009,08,24,14,34,18.80
2009,08,24,14,35,18.70
2009,08,24,14,36,18.70
2009,08,24,14,37,18.60
2009,08,24,14,38,18.70
2009,08,24,14,39,18.70
2009,08,24,14,40,18.80
2009,08,24,14,41,18.80
2009,08,24,14,42,18.80
2009,08,24,14,43,18.90
2009,08,24,14,44,18.90
2009,08,24,14,45,19.00
2009,08,24,14,46,19.10
2009,08,24,14,47,19.20
2009,08,24,14,48,19.30
2009,08,24,14,49,19.40
2009,08,24,14,50,19.60
2009,08,24,14,51,19.70
2009,08,24,14,52,19.80
2009,08,24,14,53,19.80
2009,08,24,14,54,19.80
2009,08,24,14,55,19.80
2009,08,24,14,56,19.80
2009,08,24,14,57,19.80
2009,08,24,14,58,19.80
2009,08,24,14,59,19.80
2009,08,24,15,00,19.80
2009,08,24,15,01,19.80
2009,08,24,15,02,19.80
2009,08,24,15,03,19.80
2009,08,24,15,04,19.70
2009,08,24,15,05,19.70
2009,08,24,15,06,19.70
2009,08,24,15,07,19.60
2009,08,24,15,08,19.60
2009,08,24,15,09,19.60
2009,08,24,15,10,19.70
2009,08,24,15,11,19.70
2009,08,24,15,12,19.80
2009,08,24,15,13,19.90
2009,08,24,15,14,19.90
2009,08,24,15,15,20.00
2009,08,24,15,16,20.00
2009,08,24,15,17,20.00
2009,08,24,15,18,20.00
2009,08,24,15,19,20.00
2009,08,24,15,20,20.00
2009,08,24,15,21,20.10
2009,08,24,15,22,20.00
2009,08,24,15,23,20.00
2009,08,24,15,24,19.90
2009,08,24,15,25,19.90
2009,08,24,15,26,19.80
2009,08,24,15,27,19.80
2009,08,24,15,28,19.80
2009,08,24,15,29,19.80
2009,08,24,15,30,19.80
2009,08,24,15,31,19.80
2009,08,24,15,32,19.80
2009,08,24,15,33,19.80
2009,08,24,15,34,19.80
2009,08,24,15,35,19.90
2009,08,24,15,36,19.90
2009,08,24,15,37,19.90
2009,08,24,15,38,19.90
2009,08,24,15,39,19.90
2009,08,24,15,40,19.90
2009,08,24,15,41,19.90
2009,08,24,15,42,19.90
2009,08,24,15,43,19.90
2009,08,24,15,44,19.90
2009,08,24,15,45,19.90
2009,08,24,15,46,19.90
2009,08,24,15,47,19.90
2009,08,24,15,48,19.90
2009,08,24,15,49,19.90
2009,08,24,15,50,19.80
2009,08,24,15,51,19.70
2009,08,24,15,52,19.60
2009,08,24,15,53,19.40
2009,08,24,15,54,19.30
2009,08,24,15,55,19.30
2009,08,24,15,56,19.30
2009,08,24,15,57,19.30
2009,08,24,15,58,19.20
2009,08,24,15,59,19.20
2009,08,24,16,00,19.20
2009,08,24,16,01,19.20
2009,08,24,16,02,19.10
2009,08,24,16,03,19.00
2009,08,24,16,04,18.90
2009,08,24,16,05,18.90
2009,08,24,16,06,18.90
2009,08,24,16,07,19.00
2009,08,24,16,08,19.00
2009,08,24,16,09,19.00
2009,08,24,16,10,18.90
2009,08,24,16,11,18.90
2009,08,24,16,12,18.80
2009,08,24,16,13,18.80
2009,08,24,16,14,18.80
2009,08,24,16,15,18.80
2009,08,24,16,16,18.80
2009,08,24,16,17,18.80
2009,08,24,16,18,18.90
2009,08,24,16,19,18.80
2009,08,24,16,20,18.80
2009,08,24,16,21,18.80
2009,08,24,16,22,18.80
2009,08,24,16,23,18.80
2009,08,24,16,24,18.80
2009,08,24,16,25,18.80
2009,08,24,16,26,18.80
2009,08,24,16,27,18.70
2009,08,24,16,28,18.70
2009,08,24,16,29,18.50
2009,08,24,16,30,18.50
2009,08,24,16,31,18.50
2009,08,24,16,32,18.50
2009,08,24,16,33,18.50
2009,08,24,16,34,18.60
2009,08,24,16,35,18.60
2009,08,24,16,36,18.60
2009,08,24,16,37,18.60
2009,08,24,16,38,18.60
2009,08,24,16,39,18.60
2009,08,24,16,40,18.60
2009,08,24,16,41,18.60
2009,08,24,16,42,18.60
2009,08,24,16,43,18.50
2009,08,24,16,44,18.50
2009,08,24,16,45,18.50
2009,08,24,16,46,18.60
2009,08,24,16,47,18.60
2009,08,24,16,48,18.60
2009,08,24,16,49,18.70
2009,08,24,16,50,18.70
2009,08,24,16,51,18.80
2009,08,24,16,52,18.90
2009,08,24,16,53,19.00
2009,08,24,16,54,19.10
2009,08,24,16,55,19.20
2009,08,24,16,56,19.30
2009,08,24,16,57,19.30
2009,08,24,16,58,19.40
2009,08,24,16,59,19.50
2009,08,24,17,00,19.50
2009,08,24,17,01,19.50
2009,08,24,17,02,19.60
2009,08,24,17,03,19.70
2009,08,24,17,04,19.70
2009,08,24,17,05,19.80
2009,08,24,17,06,19.80
2009,08,24,17,07,19.80
2009,08,24,17,08,19.80
2009,08,24,17,09,19.80
2009,08,24,17,10,19.80
2009,08,24,17,11,19.80
2009,08,24,17,12,19.80
2009,08,24,17,13,19.80
2009,08,24,17,14,19.70
2009,08,24,17,15,19.60
2009,08,24,17,16,19.50
2009,08,24,17,17,19.40
2009,08,24,17,18,19.40
2009,08,24,17,19,19.30
2009,08,24,17,20,19.30
2009,08,24,17,21,19.30
2009,08,24,17,22,19.20
2009,08,24,17,23,19.20
2009,08,24,17,24,19.30
2009,08,24,17,25,19.30